sat.trackr.live / text

‹ back to catalog

STARLINK-35565

NORAD 66803 · 2025-278N

PAYLOAD ACTIVE UNKNOWN

§ Identity

Operator
Country
US
Launch date
2025-12-01
Launch site
AFETR
Launch vehicle
Mass (kg)
RCS (m²)

Purposes: comms

External: N2YO · Heavens-Above · Gunter

§ Orbital elements

Epoch: 2026-09-20T22:01:12.797472Z

Period
94.27 min
Inclination
43.0048°
Eccentricity
0.0000918
Mean motion
15.27588096 rev/d
Perigee alt
482.4 km
Apogee alt
483.7 km
Semi-major
6,861.2 km
B*
5.2491e-4
RAAN
92.0876°
Arg perigee
292.8048°
Mean anomaly
67.2707°
Rev number
4,506

§ Raw data

STARLINK-355651 66803U 25278N   26263.91750923  .00014214  00000+0  52491-3 0  99972 66803  43.0048  92.0876 0000918 292.8048  67.2707 15.27588096 45062

JSON: /api/v1/satellites/66803 · /tle

For live sub-satellite position, see the globe view (requires WebGL).

§ Visibility from observer

Set your observer location to see the next 7 days of passes ≥ 10°. The values pass through the URL so the page stays shareable.

No JS? Fill the form by hand. The geolocation button needs JavaScript.